[[{"header":{"parameterUnit":"m.s-1","parameterCategory":1,"la1":30.2991,"la2":30.254,"lo1":-89.0895,"lo2":-89.0444,"dy":0.0017,"dx":0.0017,"nx":28,"ny":28,"refTime":"2025-09-02T09:00:00:Z","depth":0,"parameterNumber":2,"parameterNumberName":"U-component_of_WINDS"},"data":[0,0,0,0,0,0,0,0,0,0,0,0,0,0,0,0,0,0,0,0,0,0,0,0,0,0,0,0,0,0,0,0,0,0,0,0,0,0,0,0,0,0,0,0,0,0,0,0,0,0,0,0,0,0,0,0,0,0,-0.9162,-0.9163,0,-0.9204,-0.9204,-0.9205,-0.919,-0.9189,-0.9188,-0.9188,-0.9232,-0.9234,-0.9236,0,0,0,0,0,0,0,0,0,0,0,0,0,-0.9073,-0.9075,-0.9162,-0.9163,-0.9163,-0.9204,-0.9204,-0.9205,-0.919,-0.9189,-0.9188,-0.9187,-0.9231,-0.9234,-0.9236,0,0,0,0,0,0,0,0,0,0,0,0,0,-0.9113,-0.9076,-0.9162,-0.9161,-0.9161,-0.9204,-0.9204,-0.9205,-0.9191,-0.9189,-0.9188,-0.9187,-0.9231,-0.9234,-0.9237,-0.9283,0,0,-0.9246,-0.9247,0,0,0,0,0,0,0,0,-0.9111,-0.9116,-0.9161,-0.9161,-0.9162,-0.919,-0.9189,-0.9231,-0.9191,-0.918,-0.9187,-0.9186,-0.922,-0.9223,-0.9234,-0.9285,-0.9287,-0.9246,-0.9248,-0.925,-0.925,0,0,0,0,0,0,0,-0.9108,-0.9115,-0.9179,-0.9161,-0.9162,-0.9159,-0.9163,-0.9197,-0.9207,-0.918,-0.9179,-0.9184,-0.922,-0.9231,-0.9235,-0.9288,-0.9246,-0.9249,-0.9251,-0.9252,-0.938,-0.9382,0,0,0,0,0,0,-0.9105,-0.9112,-0.9177,-0.918,-0.9132,-0.9162,-0.9166,-0.9183,-0.9206,-0.9209,-0.9186,-0.9184,-0.9227,-0.9232,-0.9237,-0.9293,-0.925,-0.9252,-0.9254,-0.9379,-0.9381,-0.9382,0,0,0,0,0,0,-0.9103,-0.9111,-0.9176,-0.9146,-0.9154,-0.9165,-0.9183,-0.9184,-0.9196,-0.921,-0.9212,-0.9196,-0.9226,-0.9232,-0.9272,-0.9295,-0.9254,-0.9257,-0.9377,-0.9379,-0.9382,-0.9407,0,0,0,0,0,0,-0.91,-0.911,-0.9127,-0.9146,-0.9156,-0.921,-0.9184,-0.9186,-0.9201,-0.9199,-0.922,-0.9223,-0.9225,-0.9267,-0.9275,-0.9298,-0.9259,-0.9375,-0.9378,-0.9381,-0.9404,-0.941,-0.9415,0,0,0,0,0,-0.9097,-0.9133,-0.9128,-0.9136,-0.9177,-0.9211,-0.9216,-0.9218,-0.9203,-0.9221,-0.923,-0.9222,-0.9291,-0.9272,-0.928,-0.9305,-0.9374,-0.9377,-0.9381,-0.9402,-0.9409,-0.9415,0,0,0,0,0,0,-0.9118,-0.9136,-0.9131,-0.9174,-0.9191,-0.9208,-0.9231,-0.9225,-0.9248,-0.9245,-0.9247,-0.9252,-0.9292,-0.9302,-0.928,-0.9351,-0.933,-0.9336,-0.9343,-0.935,-0.9355,-0.9352,-0.9262,0,0,0,0,0,-0.9127,-0.9152,-0.9167,-0.9203,-0.9212,-0.922,-0.9235,-0.9235,-0.9253,-0.926,-0.9272,-0.9291,-0.9317,-0.9334,-0.9359,-0.9405,-0.941,-0.9427,-0.9432,-0.9436,-0.9441,-0.9467,-0.9475,-0.9394,-0.9394,-0.9394,0,0,-0.9147,-0.916,-0.9176,-0.9208,-0.9221,-0.9248,-0.9226,-0.9255,-0.9275,-0.9265,-0.9303,-0.9312,-0.9333,-0.9377,-0.9397,-0.9386,-0.9464,-0.9441,-0.9444,-0.9447,-0.9472,-0.9479,-0.9486,-0.9396,-0.9396,-0.9396,0,0,-0.9197,-0.9209,-0.9241,-0.9254,-0.9274,-0.9279,-0.9287,-0.9306,-0.9312,-0.9349,-0.9342,-0.9366,-0.9411,-0.9426,-0.944,-0.9496,-0.9489,-0.9504,-0.9532,-0.9557,-0.9564,-0.9569,-0.959,-0.9597,-0.9508,-0.9508,-0.9509,0,-0.9219,-0.9258,-0.9258,-0.9288,-0.9302,-0.9293,-0.9326,-0.934,-0.9367,-0.9378,-0.9366,-0.9422,-0.9435,-0.9482,-0.9496,-0.9507,-0.9517,-0.9502,-0.9563,-0.9568,-0.9574,-0.9593,-0.9601,-0.951,-0.951,-0.951,-0.951,0,-0.9285,-0.9312,-0.9336,-0.9362,-0.9379,-0.941,-0.9416,-0.9434,-0.9432,-0.9438,-0.9478,-0.9493,-0.9521,-0.9532,-0.9531,-0.958,-0.9573,-0.9562,-0.9541,-0.9583,-0.9602,-0.9609,-0.9512,-0.9512,-0.9511,-0.9511,0,0,-0.9349,-0.9374,-0.9383,-0.9395,-0.9416,-0.9438,-0.9469,-0.9496,-0.9511,-0.953,-0.9557,-0.9595,-0.9585,-0.96,-0.9601,-0.9623,-0.9667,-0.961,-0.961,-0.962,-0.9723,-0.9731,-0.974,-0.9663,-0.9664,-0.9666,-0.9721,0,-0.9401,-0.9455,-0.9456,-0.9506,-0.9531,-0.9523,-0.955,-0.9567,-0.9574,-0.9597,-0.9605,-0.9632,-0.9616,-0.9626,-0.9647,-0.9657,-0.9688,-0.9653,-0.9689,-0.969,-0.9684,-0.9749,-0.9759,-0.981,-0.9728,-0.9729,-0.973,0,-0.9469,-0.949,-0.9542,-0.956,-0.9571,-0.9595,-0.962,-0.9642,-0.9661,-0.9664,-0.9682,-0.9679,-0.9712,-0.9689,-0.9735,-0.9711,-0.9726,-0.9733,-0.9735,-0.9739,-0.9713,-0.9756,-0.9827,-0.9835,-0.9742,-0.9741,-0.974,0,-0.9512,-0.9553,-0.9589,-0.9599,-0.9621,-0.9639,-0.9649,-0.9666,-0.9682,-0.9704,-0.9714,-0.974,-0.9754,-0.9774,-0.9779,-0.9762,-0.9825,-0.9802,-0.983,-0.983,-0.9844,-0.9843,-0.9919,-0.9852,-0.9852,-0.9852,-0.9852,0,-0.957,-0.9603,-0.9608,-0.9631,-0.9667,-0.9668,-0.9705,-0.9713,-0.9729,-0.9754,-0.9748,-0.9772,-0.9776,-0.9801,-0.9805,-0.9842,-0.9849,-0.9853,-0.9854,-0.9854,-0.9854,-0.9864,-0.9861,-0.9854,-0.9854,-0.9853,-0.9853,0,-0.9624,-0.9629,-0.9669,-0.9686,-0.9691,-0.9717,-0.9732,-0.9754,-0.976,-0.9792,-0.9799,-0.9809,-0.9838,-0.9845,-0.9879,-0.9882,-0.9927,-0.9924,-0.992,-0.992,-0.9947,-0.9945,-1.0033,-1.0045,-0.997,-0.9971,-0.9971,0,-0.9661,-0.9686,-0.9706,-0.9721,-0.9732,-0.9757,-0.9774,-0.9776,-0.9793,-0.9816,-0.9836,-0.9864,-0.9887,-0.9933,-0.9944,-0.9971,-0.9969,-0.9998,-0.9973,-0.9973,-0.997,-0.9969,-0.9972,-1.0003,-1.0004,-1.0005,-1.0005,0,-0.9728,-0.9729,-0.9752,-0.9776,-0.9795,-0.9814,-0.9832,-0.9846,-0.985,-0.987,-0.9899,-0.9917,-0.9952,-0.998,-1.0007,-1.0018,-1.0013,-1.0013,-1.0021,-1.0021,-1.0019,-1.0021,-0.9934,-1.0011,-1.001,-1.001,-1.001,-1.0009,-0.9775,-0.9797,-0.9814,-0.9839,-0.9853,-0.987,-0.9892,-0.9901,-0.9925,-0.9953,-0.9953,-0.9985,-1.0003,-1.0038,-1.0051,-1.0077,-1.0068,-1.0079,-1.0082,-1.0085,-1.0088,-1.0014,-1.0082,-1.0082,-1.0081,-1.0081,-1.0081,0,-0.9841,-0.9852,-0.9875,-0.9901,-0.9921,-0.9913,-0.9933,-0.9951,-0.9979,-0.9997,-1.0019,-1.0053,-1.008,-1.0093,-1.012,-1.0139,-1.0137,-1.0146,-1.0145,-1.0148,-1.0094,-1.0085,-1.0147,-1.0147,-1.0147,-1.0147,-1.0147,-1.0147,-0.9879,-0.9915,-0.9918,-0.9961,-0.9972,-1.0002,-1.0014,-1.0031,-1.0045,-1.0082,-1.0105,-1.0112,-1.0129,-1.0157,-1.0182,-1.0185,-1.0196,-1.0206,-1.0208,-1.0158,-1.0152,-1.0145,-1.0137,-1.0208,-1.0208,-1.026,-1.0261,-1.0261]},{"header":{"parameterUnit":"m.s-1","parameterCategory":1,"la1":30.2991,"la2":30.254,"lo1":-89.0895,"lo2":-89.0444,"dy":0.0017,"dx":0.0017,"nx":28,"ny":28,"refTime":"2025-09-02T09:00:00:Z","depth":0,"parameterNumber":3,"parameterNumberName":"V-component_of_WINDS"},"data":[0,0,0,0,0,0,0,0,0,0,0,0,0,0,0,0,0,0,0,0,0,0,0,0,0,0,0,0,0,0,0,0,0,0,0,0,0,0,0,0,0,0,0,0,0,0,0,0,0,0,0,0,0,0,0,0,0,0,2.2458,2.2458,0,2.2484,2.2485,2.2485,2.2474,2.2473,2.2473,2.2472,2.2497,2.2498,2.25,0,0,0,0,0,0,0,0,0,0,0,0,0,2.2394,2.2395,2.2458,2.2458,2.2458,2.2484,2.2485,2.2485,2.2474,2.2473,2.2473,2.2472,2.2497,2.2498,2.25,0,0,0,0,0,0,0,0,0,0,0,0,0,2.2421,2.2396,2.2458,2.2456,2.2456,2.2484,2.2485,2.2485,2.2474,2.2473,2.2472,2.2472,2.2496,2.2498,2.25,2.253,0,0,2.2506,2.2507,0,0,0,0,0,0,0,0,2.242,2.2424,2.2456,2.2456,2.2456,2.2475,2.2471,2.25,2.2475,2.2467,2.2472,2.2471,2.249,2.2493,2.25,2.2532,2.2533,2.2506,2.2507,2.2508,2.2508,0,0,0,0,0,0,0,2.2418,2.2422,2.2468,2.2456,2.2457,2.2453,2.2456,2.2477,2.2484,2.2468,2.2467,2.2471,2.249,2.2498,2.25,2.2533,2.2506,2.2508,2.2509,2.2509,2.2589,2.259,0,0,0,0,0,0,2.2416,2.2421,2.2467,2.2469,2.2436,2.2455,2.2458,2.247,2.2484,2.2485,2.2471,2.247,2.2495,2.2498,2.2501,2.2536,2.2508,2.251,2.2511,2.2588,2.259,2.2591,0,0,0,0,0,0,2.2415,2.2421,2.2466,2.2445,2.245,2.2457,2.247,2.2471,2.2479,2.2486,2.2487,2.2478,2.2495,2.2498,2.2523,2.2537,2.251,2.2512,2.2587,2.2589,2.259,2.2607,0,0,0,0,0,0,2.2413,2.242,2.2433,2.2445,2.2452,2.2489,2.2471,2.2472,2.2482,2.2481,2.2493,2.2494,2.2494,2.252,2.2525,2.2539,2.2514,2.2586,2.2588,2.259,2.2606,2.2609,2.2613,0,0,0,0,0,2.2411,2.2436,2.2433,2.2439,2.2467,2.2489,2.2493,2.2494,2.2483,2.2495,2.25,2.2493,2.2535,2.2523,2.2528,2.2543,2.2585,2.2587,2.2589,2.2604,2.2609,2.2612,0,0,0,0,0,0,2.2424,2.2438,2.2435,2.2465,2.2476,2.2488,2.2503,2.2499,2.2512,2.251,2.251,2.2512,2.2537,2.2543,2.2529,2.2572,2.2558,2.2562,2.2568,2.2572,2.2575,2.2573,2.2515,0,0,0,0,0,2.2431,2.2449,2.2459,2.2485,2.2491,2.2496,2.2506,2.2505,2.2516,2.2521,2.2527,2.2538,2.2553,2.2563,2.2578,2.2607,2.2608,2.2619,2.2623,2.2626,2.2628,2.2642,2.2647,2.2598,2.2598,2.2598,0,0,2.2445,2.2454,2.2465,2.2488,2.2496,2.2514,2.25,2.2519,2.2531,2.2523,2.2547,2.2552,2.2563,2.259,2.2602,2.2595,2.2642,2.2629,2.2631,2.2632,2.2645,2.265,2.2654,2.26,2.2599,2.2599,0,0,2.2478,2.2488,2.2509,2.2518,2.2532,2.2535,2.254,2.2552,2.2555,2.2579,2.2573,2.2587,2.2614,2.2622,2.2629,2.2665,2.2659,2.267,2.2687,2.2701,2.2705,2.2708,2.2719,2.2724,2.2673,2.2673,2.2673,0,2.2492,2.2519,2.2521,2.254,2.2549,2.2544,2.2565,2.2573,2.259,2.2596,2.2589,2.2622,2.2629,2.2657,2.2665,2.2672,2.2677,2.2668,2.2705,2.2708,2.2711,2.2722,2.2726,2.2674,2.2674,2.2674,2.2673,0,2.2536,2.2554,2.257,2.2587,2.2598,2.2619,2.2622,2.2633,2.2632,2.2635,2.2658,2.2667,2.2683,2.269,2.2688,2.2717,2.2712,2.2705,2.269,2.2717,2.2727,2.2731,2.2675,2.2675,2.2675,2.2674,0,0,2.2577,2.2595,2.2601,2.2608,2.2622,2.2636,2.2655,2.2671,2.268,2.2692,2.2707,2.273,2.2723,2.2731,2.2731,2.2743,2.2769,2.2734,2.2734,2.2739,2.2799,2.2803,2.2808,2.2765,2.2766,2.2767,2.2797,0,2.261,2.2645,2.2646,2.2677,2.2693,2.2688,2.2705,2.2715,2.2719,2.2732,2.2736,2.2751,2.2742,2.2747,2.2759,2.2763,2.278,2.2761,2.2778,2.2778,2.2774,2.2813,2.2818,2.2846,2.2801,2.2802,2.2802,0,2.2653,2.2667,2.2699,2.271,2.2717,2.2732,2.2746,2.276,2.277,2.2772,2.2782,2.2779,2.2798,2.2784,2.2808,2.2795,2.2802,2.2805,2.2806,2.2807,2.2791,2.2813,2.2855,2.2859,2.2809,2.2808,2.2808,0,2.2678,2.2705,2.2727,2.2734,2.2748,2.2758,2.2764,2.2774,2.2783,2.2795,2.2801,2.2815,2.2822,2.2832,2.2833,2.2824,2.2857,2.2844,2.2858,2.2858,2.2864,2.2864,2.2907,2.2872,2.2872,2.2871,2.2871,0,2.2714,2.2733,2.2739,2.2752,2.2774,2.2775,2.2796,2.2801,2.281,2.2824,2.282,2.2833,2.2834,2.2847,2.2848,2.2867,2.2871,2.2872,2.2872,2.2871,2.2871,2.2875,2.2872,2.2873,2.2872,2.2872,2.2872,0,2.2745,2.2749,2.2773,2.2784,2.2787,2.2803,2.2812,2.2824,2.2828,2.2845,2.2849,2.2854,2.2869,2.2871,2.2889,2.2889,2.2912,2.291,2.2908,2.2908,2.2921,2.2919,2.2966,2.2972,2.2935,2.2935,2.2936,0,2.2766,2.2782,2.2794,2.2803,2.281,2.2825,2.2834,2.2836,2.2845,2.2858,2.2869,2.2884,2.2895,2.2919,2.2924,2.2937,2.2935,2.295,2.2936,2.2935,2.2933,2.2931,2.2932,2.2952,2.2953,2.2953,2.2954,0,2.2804,2.2805,2.2819,2.2833,2.2845,2.2856,2.2866,2.2874,2.2877,2.2888,2.2903,2.2912,2.293,2.2944,2.2957,2.2962,2.2958,2.2958,2.2962,2.2961,2.2958,2.2958,2.2914,2.2957,2.2956,2.2956,2.2956,2.2956,2.283,2.2842,2.2853,2.2868,2.2876,2.2886,2.2898,2.2903,2.2916,2.2931,2.2931,2.2948,2.2957,2.2974,2.298,2.2992,2.2987,2.2992,2.2993,2.2994,2.2995,2.2958,2.2994,2.2994,2.2994,2.2994,2.2994,0,2.2866,2.2872,2.2886,2.2901,2.2913,2.2909,2.292,2.293,2.2944,2.2954,2.2965,2.2982,2.2996,2.3002,2.3015,2.3023,2.3021,2.3026,2.3025,2.3026,2.3,2.2994,2.3027,2.3027,2.3027,2.3027,2.3027,2.3027,2.2885,2.2906,2.2908,2.2933,2.2939,2.2955,2.2962,2.297,2.2978,2.2997,2.3008,2.3012,2.302,2.3033,2.3045,2.3046,2.305,2.3056,2.3056,2.3031,2.3028,2.3025,2.302,2.3057,2.3057,2.3081,2.3081,2.3081]}]]